Location: Erba
(45.8000°N, 9.2500°E)
Time: 10:36:31
(UTC+02:00)

ISS - Pass Details

Date: 07 July 2020
Orbit: 417 x 420 km, 51.6° (Epoch: 02 July)

Event Time Altitude Azimuth Distance (km) Brightness Sun altitude
Exits shadow 02:36:48 87° 103° (ESE) 422 -3.9 -19.9°
Drops below altitude 10° 02:40:07 10° 62° (ENE) 1,497 -0.3 -19.7°
Sets 02:42:13 0° 62° (ENE) 2,362 0.8 -19.6°
